Regional Weather Roundup
Issued by NWS Albany, NY

Current Version | Previous Version | Text Only | Print | Product List | Glossary On
Versions: 1 2 3 4 5 6 7 8 9 10 11 12 13 14 15 16 17 18 19 20 21 22 23 24 25 26 27 28 29 30 31 32 33 34 35 36 37 38 39 40 41 42 43 44 45 46 47 48 49 50
000
ASUS41 KALY 012010
RWRALY

NEW YORK STATE HOURLY WEATHER ROUNDUP
NATIONAL WEATHER SERVICE ALBANY NY
300 PM EST SUN FEB 01 2015

NOTE: "FAIR" INDICATES FEW OR NO CLOUDS BELOW 12,000 FEET WITH NO
SIGNIFICANT WEATHER AND/OR NO OBSTRUCTIONS TO VISIBILITY.

NYZ032-033-038>043-046>054-057>066-NYZ062>081-012100-
EAST


CITY           SKY/WX    TMP DP  RH WIND       PRES   REMARKS
ALBANY         PTSUNNY   26   8  46 NE3       30.14F
GLENS FALLS    SUNNY     16   3  56 E9        30.17R WCI   4
POUGHKEEPSIE   CLOUDY    35  19  52 NE5       30.12R WCI  31
NEWBURGH       PTSUNNY   32  19  59 NW14      30.11F WCI  22
MONTGOMERY     CLOUDY    34  17  50 NW8       30.10S WCI  27
WHITE PLAINS   PTSUNNY   34  19  54 NW10      30.11S WCI  26
ISLIP          PTSUNNY   36  18  48 W10       30.12S WCI  28
NEW YORK CITY  PTSUNNY   35  18  49 W8        30.14S WCI  29
CENTRAL PARK   CLOUDY    35  18  49 W7        30.16S WCI  29
$$

NYZ005>009-017-018-044>046-055-056-012100-
CENTRAL


CITY           SKY/WX    TMP DP  RH WIND       PRES   REMARKS
FULTON         CLOUDY    14   4  64 N8        30.20S WCI   3
SYRACUSE       CLOUDY    18   6  59 NW7       30.18R WCI   9
ROME           PTSUNNY   20   6  55 CALM      30.18S
ELMIRA         LGT SNOW  23  19  85 NE7       30.10S VSB 3/4 WCI  15
BINGHAMTON     LGT SNOW  23  18  81 N3        30.05R
MONTICELLO     CLOUDY    28  18  64 W7        30.07S WCI  21
$$

NYZ026>034-041>043-012100-
NORTH


CITY           SKY/WX    TMP DP  RH WIND       PRES   REMARKS
WATERTOWN      PTSUNNY   10  -5  50 N12       30.26R WCI  -5
FORT DRUM      NOT AVBL
MASSENA        MOSUNNY    1 -13  51 NW8       30.31R WCI -13
SARANAC LAKE   SUNNY      8  -7  50 VRB3      30.06R
PLATTSBURGH    SUNNY      7  -5  57 NE14      30.25R WCI -10
$$

NYZ001>004-010>016-019>021-012100-
WEST


CITY           SKY/WX    TMP DP  RH WIND       PRES   REMARKS
NIAGARA FALLS  LGT SNOW  17  12  80 NE15      30.12F VSB 3/4 WCI   2
BUFFALO        LGT SNOW  18  13  80 NE15      30.10F WCI   4
DUNKIRK        CLOUDY    23  19  85 NE13      30.04F WCI  11
JAMESTOWN      CLOUDY    27  23  86 E6        29.95F WCI  20
WELLSVILLE     LGT SNOW  26  22  84 E6        29.98F FOG     WCI  19
ROCHESTER      LGT SNOW  15   9  76 E12       30.18F WCI   2
PENN YAN       LGT SNOW  17  12  80 VRB3      30.13F VSB 3/4
$$

             KEY
       WCI = WIND CHILL INDEX
       VSB = VISIBILITY
       HX  = HEAT INDEX
$$



USA.gov is the U.S. government's official web portal to all federal, state and local government web resources and services.